Date String (YYYY-MM-DD hh:mm:ss) UTC,Instrument flags,Ambient pressure (hPa),Sample flow (lpm),Bypass flow (lpm),Sample temperature (°C),Ambient temperature (°C),ASC tube jacket temperature (°C),LED temperature (°C),Box temperature (°C),Sample RH (%),Span deviation,Mass concentration (μg/m³),Mass concentration (μg/m³),Mass concentration (μg/m³)
DateTimeUTC,F1_M11,P_M11,Q1_M11,Q2_M11,T1_M11,T2_M11,T3_M11,T4_M11,T5_M11,U1_M11,ZSPAN_M11,X0_M11,X2_M11,X1_M11
2021-08-22 00:00:00,,0824.6,5.00,0.00,29.5,28.8,00.0,38.4,31.5,21.4,0002.9,0014.03,0008.91,0008.28
2021-08-22 00:01:00,,0824.6,5.01,0.00,29.5,27.8,00.0,38.5,31.2,21.2,0002.7,0015.14,0009.15,0008.50
2021-08-22 00:02:00,,0824.4,5.00,0.00,29.4,26.1,00.0,38.4,30.7,21.3,0002.6,0015.41,0009.37,0008.71
2021-08-22 00:03:00,,0824.4,5.01,0.00,29.3,25.9,00.0,38.4,30.7,21.8,0002.7,0014.68,0009.46,0008.80
2021-08-22 00:04:00,,0824.4,5.00,0.00,29.2,26.3,00.0,38.4,30.7,21.7,0002.6,0014.59,0009.42,0008.79
2021-08-22 00:05:00,,0824.5,5.00,0.00,29.2,26.7,00.0,38.3,30.8,22.2,0002.5,0015.06,0009.41,0008.80
2021-08-22 00:06:00,,0824.4,4.99,0.00,29.2,27.1,00.0,38.3,31.0,21.5,0002.5,0016.31,0009.55,0008.89
2021-08-22 00:07:00,,0824.4,5.00,0.00,29.2,27.5,00.0,38.3,31.1,21.9,0002.5,0017.35,0009.64,0008.98
2021-08-22 00:08:00,,0824.4,4.99,0.00,29.3,27.8,00.0,38.3,31.2,23.2,0002.5,0017.57,0009.59,0008.94
2021-08-22 00:09:00,,0824.4,5.01,0.00,29.3,28.1,00.0,38.3,31.3,23.4,0002.5,0017.40,0009.40,0008.77
2021-08-22 00:10:00,,0824.4,4.98,0.00,29.4,28.4,00.0,38.4,31.3,22.5,0002.4,0017.21,0009.21,0008.57
2021-08-22 00:11:00,,0824.4,5.00,0.00,29.5,28.5,00.0,38.4,31.4,22.2,0002.5,0017.35,0009.00,0008.38
2021-08-22 00:12:00,,0824.5,5.01,0.00,29.5,28.7,00.0,38.4,31.5,22.5,0002.6,0016.61,0008.84,0008.21
2021-08-22 00:13:00,,0824.5,4.99,0.00,29.5,28.2,00.0,38.4,31.3,22.7,0002.6,0016.84,0008.70,0008.07
2021-08-22 00:14:00,,0824.5,5.01,0.00,29.4,26.3,00.0,38.4,30.7,23.5,0002.5,0016.75,0008.64,0008.01
2021-08-22 00:15:00,,0824.5,5.00,0.00,29.2,25.7,00.0,38.4,30.5,24.6,0002.4,0016.68,0008.62,0007.95
2021-08-22 00:16:00,,0824.4,4.99,0.00,29.2,26.0,00.0,38.4,30.6,24.9,0002.4,0016.39,0008.60,0007.90
2021-08-22 00:17:00,,0824.5,5.00,0.00,29.1,26.5,00.0,38.3,30.7,25.0,0002.4,0015.22,0008.48,0007.83
2021-08-22 00:18:00,,0824.8,4.99,0.00,29.1,26.9,00.0,38.3,30.9,25.1,0002.2,0014.16,0008.39,0007.74
2021-08-22 00:19:00,,0824.7,4.99,0.00,29.2,27.3,00.0,38.3,31.0,25.1,0002.2,0013.81,0008.33,0007.67
2021-08-22 00:20:00,,0824.8,5.00,0.00,29.2,27.7,00.0,38.3,31.1,24.1,0002.3,0013.86,0008.30,0007.65
2021-08-22 00:21:00,,0825.0,5.00,0.00,29.3,28.0,00.0,38.3,31.2,24.0,0002.5,0013.95,0008.29,0007.64
2021-08-22 00:22:00,,0825.2,5.00,0.00,29.3,28.2,00.0,38.3,31.3,24.3,0002.5,0013.02,0008.25,0007.61
2021-08-22 00:23:00,,0825.4,5.00,0.00,29.4,28.4,00.0,38.4,31.4,25.2,0002.7,0012.87,0008.27,0007.62
2021-08-22 00:24:00,,0825.4,5.00,0.00,29.5,28.6,00.0,38.4,31.4,25.2,0002.7,0012.73,0008.34,0007.67
2021-08-22 00:25:00,,0825.5,4.99,0.00,29.5,28.7,00.0,38.4,31.5,27.4,0002.7,0013.23,0008.44,0007.72
2021-08-22 00:26:00,,0825.3,5.00,0.00,29.5,27.7,00.0,38.4,31.2,32.7,0002.8,0014.64,0008.96,0008.05
2021-08-22 00:27:00,,0825.0,4.99,0.00,29.4,25.8,00.0,38.4,30.7,34.5,0003.0,0018.41,0009.90,0008.59
2021-08-22 00:28:00,,0825.3,5.00,0.00,29.2,25.2,00.0,38.4,30.6,32.3,0003.0,0020.61,0010.71,0009.16
2021-08-22 00:29:00,,0825.0,5.02,0.00,29.1,25.5,00.0,38.3,30.5,29.5,0003.0,0021.66,0011.31,0009.65
2021-08-22 00:30:00,,0824.8,4.99,0.00,29.1,26.0,00.0,38.3,30.7,29.8,0003.0,0022.64,0011.88,0010.10
2021-08-22 00:31:00,,0824.9,5.00,0.00,29.1,26.4,00.0,38.3,30.8,31.7,0002.8,0023.69,0012.49,0010.55
2021-08-22 00:32:00,,0825.1,5.00,0.00,29.0,26.8,00.0,38.2,30.8,30.5,0002.7,0024.17,0012.89,0010.86
2021-08-22 00:33:00,,0825.3,5.01,0.00,29.0,27.1,00.0,38.2,30.9,31.5,0002.6,0024.75,0013.22,0011.05
2021-08-22 00:34:00,,0825.3,5.01,0.00,29.0,27.3,00.0,38.2,30.9,32.8,0002.7,0025.36,0013.59,0011.29
2021-08-22 00:35:00,,0825.3,4.99,0.00,29.0,27.5,00.0,38.2,30.9,33.5,0002.7,0026.20,0013.99,0011.55
2021-08-22 00:36:00,,0825.3,5.00,0.00,29.0,27.6,00.0,38.2,30.9,32.4,0002.7,0026.27,0014.21,0011.70
2021-08-22 00:37:00,,0825.3,4.98,0.00,29.0,27.7,00.0,38.2,30.9,31.9,0002.6,0025.42,0013.98,0011.61
2021-08-22 00:38:00,,0825.4,5.01,0.00,29.0,27.8,00.0,38.2,30.9,31.8,0002.4,0022.25,0013.29,0011.29
2021-08-22 00:39:00,,0825.3,5.01,0.00,29.0,27.9,00.0,38.2,30.9,32.4,0002.2,0019.59,0012.66,0010.93
2021-08-22 00:40:00,,0825.3,5.00,0.00,29.0,28.0,00.0,38.2,30.9,32.6,0002.2,0018.72,0012.29,0010.65
2021-08-22 00:41:00,,0825.3,5.01,0.00,29.1,28.0,00.0,38.2,30.9,33.0,0002.3,0018.18,0012.00,0010.42
2021-08-22 00:42:00,,0825.2,4.98,0.00,29.1,28.1,00.0,38.2,30.9,33.3,0002.4,0017.58,0011.69,0010.21
2021-08-22 00:43:00,,0825.2,5.00,0.00,29.1,28.2,00.0,38.2,31.0,33.9,0002.2,0017.25,0011.49,0010.10
2021-08-22 00:44:00,,0825.2,5.00,0.00,29.1,28.2,00.0,38.3,31.0,33.5,0002.2,0017.04,0011.41,0010.14
2021-08-22 00:45:00,,0825.2,5.01,0.00,29.1,28.3,00.0,38.3,31.0,33.8,0002.0,0016.99,0011.23,0010.06
2021-08-22 00:46:00,,0825.1,4.99,0.00,29.2,28.3,00.0,38.3,31.0,33.9,0001.8,0016.33,0010.97,0009.93
2021-08-22 00:47:00,,0825.1,5.01,0.00,29.2,28.3,00.0,38.3,31.1,33.7,0001.9,0016.01,0010.85,0009.89
2021-08-22 00:48:00,,0825.0,5.00,0.00,29.2,27.1,00.0,38.3,30.7,33.9,0001.9,0016.15,0010.92,0009.91
2021-08-22 00:49:00,,0825.0,5.01,0.00,29.0,25.9,00.0,38.2,30.4,33.3,0002.1,0016.23,0010.93,0009.91
2021-08-22 00:50:00,,0824.9,4.99,0.00,28.9,25.8,00.0,38.2,30.4,32.6,0002.1,0016.24,0010.92,0009.89
2021-08-22 00:51:00,,0824.9,5.00,0.00,28.9,26.2,00.0,38.2,30.5,31.5,0002.1,0016.13,0010.78,0009.76
2021-08-22 00:52:00,,0824.9,5.01,0.00,28.9,26.6,00.0,38.1,30.6,32.0,0001.8,0015.89,0010.61,0009.61
2021-08-22 00:53:00,,0824.9,4.99,0.00,28.9,26.9,00.0,38.1,30.7,32.3,0002.2,0015.60,0010.49,0009.49
2021-08-22 00:54:00,,0824.9,5.01,0.00,28.9,27.2,00.0,38.1,30.7,32.1,0002.4,0015.54,0010.32,0009.31
2021-08-22 00:55:00,,0824.9,5.00,0.00,28.9,27.4,00.0,38.1,30.8,32.4,0002.4,0015.34,0010.21,0009.17
2021-08-22 00:56:00,,0824.9,4.99,0.00,29.0,27.6,00.0,38.1,30.8,33.1,0002.6,0015.00,0010.09,0009.09
2021-08-22 00:57:00,,0824.9,5.01,0.00,29.0,27.8,00.0,38.1,30.9,33.0,0002.7,0014.83,0010.03,0009.05
2021-08-22 00:58:00,,0824.9,5.01,0.00,29.0,27.9,00.0,38.1,30.9,33.0,0002.7,0014.78,0009.97,0008.97
2021-08-22 00:59:00,,0824.9,4.99,0.00,29.0,28.0,00.0,38.1,30.9,32.9,0002.9,0014.54,0009.82,0008.85
